OneWeb SL0245

operational
NORAD ID: 48778 Int'l Des: 2021-045 Owner: ONEWEBN Country: UK Constellation: oneweb
LEOCIRCULARPOLARONEWEB_TYPE

OneWeb SL0245について

説明を読み込み中...

リアルタイム位置

3D地球を読み込み中...

次回通過

高度履歴

Altitude vs Time

uPlot chart will show altitude changes over time

軌道要素

1 48778U 21045M 25304.51422819 .00000070 00000-0 15216-3 0 9997
2 48778 87.8961 304.8208 0002095 92.4424 267.6947 13.15550490214316
Epoch: Oct 31, 2025 • Age: 12 hours

現在のステータス

高度 1210.1 km
速度 7.25 km/s
衛星直下点 -20.67°S, 80.32°E
打ち上げ日 May 28, 2021
運用期間 4.4 years
タイプ internet

技術仕様

分類 Payload
質量 148.00 kg
乾燥質量 140.00 kg
総質量 148.00 kg
長さ 1.30 m
直径 1.00 m
スパン 5.00 m
形状 Trapezoid+2 pan
製造者 ONEWUS
バスタイプ ARROW
フェーズステータス In Orbit
所有者/国 ONEWEBN/UK

大規模コンステレーション

Loading constellations...